Track WESTFORD NEEDLES now! 10-day predictions WESTFORD NEEDLES is classified as:
1 18688U 63014DM 21023.61136451 .00000023 00000-0 97060-2 0 9999 2 18688 87.3505 29.9286 0038129 293.3341 190.7288 8.65096779949010